Location: Unspecified
(51.5147°N, 7.4673°E)
Time: 06:36:52
(UTC+01:00)

A-11 Canister half - Pass Details

Date: 22 February 2026
Orbit: 1524 x 1683 km, 47.3° (Epoch: 14 March)

Event Time Altitude Azimuth Distance (km) Brightness Sun altitude
Rises 18:40:41 0° 264° (W) 4,708 14.3 -7.4°
Reaches altitude 10° 18:43:46 10° 263° (W) 3,712 12.8 -7.8°
Maximum altitude 18:53:00 69° 182° (S) 1,613 9.2 -9.3°
Enters shadow 19:01:55 11° 102° (ESE) 3,609 10.3 -10.7°
